Elkins, WV

9:09 AM EDT on September 26, 2016 (GMT -0400)
Elkins-Randolph County

Weather History for KEKN - August, 2012

Change the Weather History Date:

Saturday, August 11, 2012

  Actual Average Record
Temperature  
Mean Temperature 65 °F 70 °F  
Max Temperature 75 °F 81 °F 97 °F (1911)
Min Temperature 55 °F 59 °F 43 °F (1930)
Degree Days  
Heating Degree Days 0 0  
Month to date heating degree days 0 0  
Since 1 June heating degree days 70 67  
Since 1 July heating degree days 0 12  
Cooling Degree Days 0 5  
Month to date cooling degree days 81 55  
Year to date cooling degree days 539 336  
Since 1 June cooling degree days 476 313  
Growing Degree Days 16 (Base 50)    
Moisture  
Dew Point 55 °F    
Average Humidity 70    
Maximum Humidity 93    
Minimum Humidity 46    
Precipitation  
Precipitation 0.00 in 0.13 in 1.60 in (1961)
Month to date precipitation 1.09 1.48  
Year to date precipitation 31.57 30.45  
Snow  
Snow 0.00 in - - ()
Month to date snowfall 0.0  
Since 1 September snowfall 30.6  
Snow Depth 0.00 in    
Sea Level Pressure  
Sea Level Pressure 29.95 in    
Wind  
Wind Speed 5 mph (West)    
Max Wind Speed 15 mph    
Max Gust Speed 20 mph    
Visibility 9 miles    
Events      
T = Trace of Precipitation, MM = Missing Value Source: NWS Daily Summary

Daily Weather History Graph

Daily Weather History Graph

Search for Another Location

Airport or City:

Trip Planner

Search our weather history database for the weather conditions in past years. The results will help you decide how hot, cold, wet, or windy it might be!

Date:

Astronomy

Aug. 11, 2012 Rise Set
Actual Time 6:29 AM EDT 8:18 PM EDT
Civil Twilight 6:01 AM EDT 8:47 PM EDT
Nautical Twilight 5:26 AM EDT 9:22 PM EDT
Astronomical Twilight 4:48 AM EDT 9:59 PM EDT
Moon 12:58 AM EDT (8/11) 3:50 PM EDT (8/11)
Length of Visible Light 14h 46m
Length of Day
13h 48m
Waning Crescent, 33% of the Moon is Illuminated
Aug 11
Waning Crescent
Aug 17
New
Aug 24
First Quarter
Aug 31
Full
Sep 8
Last Quarter

Hourly Weather History & Observations

Time (EDT) Temp. Dew Point Humidity Pressure Visibility Wind Dir Wind Speed Gust Speed Precip Events Conditions
12:51 AM 63.0 °F 60.1 °F 90% 29.86 in 8.0 mi Calm Calm - N/A   Clear
1:51 AM 63.0 °F 59.0 °F 87% 29.86 in 10.0 mi Variable 3.5 mph - N/A   Partly Cloudy
2:51 AM 62.1 °F 57.0 °F 84% 29.88 in 10.0 mi South 4.6 mph - N/A   Partly Cloudy
3:51 AM 60.1 °F 57.0 °F 90% 29.88 in 8.0 mi Calm Calm - N/A   Partly Cloudy
4:22 AM 60.8 °F 57.2 °F 88% 29.91 in 8.0 mi Calm Calm - N/A   Mostly Cloudy
4:51 AM 61.0 °F 57.9 °F 90% 29.90 in 7.0 mi Calm Calm - N/A   Mostly Cloudy
5:19 AM 59.0 °F 57.2 °F 94% 29.92 in 6.0 mi Calm Calm - N/A   Scattered Clouds
5:51 AM 59.0 °F 57.0 °F 93% 29.89 in 9.0 mi WNW 4.6 mph - N/A   Clear
6:51 AM 57.9 °F 55.9 °F 93% 29.92 in 3.0 mi Calm Calm - N/A   Partly Cloudy
7:51 AM 61.0 °F 57.9 °F 90% 29.94 in 7.0 mi Calm Calm - N/A   Partly Cloudy
8:12 AM 62.6 °F 55.4 °F 77% 29.96 in 10.0 mi SW 6.9 mph - N/A   Mostly Cloudy
8:51 AM 64.0 °F 53.1 °F 67% 29.95 in 10.0 mi SW 6.9 mph - N/A   Mostly Cloudy
8:59 AM 64.4 °F 53.6 °F 68% 29.96 in 10.0 mi Variable 3.5 mph - N/A   Scattered Clouds
9:51 AM 66.9 °F 51.1 °F 57% 29.94 in 10.0 mi SW 6.9 mph - N/A   Partly Cloudy
10:51 AM 68.0 °F 51.1 °F 55% 29.95 in 10.0 mi SW 6.9 mph 17.3 mph N/A   Mostly Cloudy
11:51 AM 71.1 °F 52.0 °F 51% 29.94 in 10.0 mi WNW 11.5 mph - N/A   Partly Cloudy
12:51 PM 71.1 °F 52.0 °F 51% 29.94 in 10.0 mi West 6.9 mph 16.1 mph N/A   Clear
1:51 PM 73.0 °F 52.0 °F 48% 29.95 in 10.0 mi WSW 9.2 mph - N/A   Clear
2:51 PM 73.9 °F 52.0 °F 46% 29.94 in 10.0 mi WNW 10.4 mph - N/A   Clear
3:51 PM 73.9 °F 55.0 °F 52% 29.94 in 10.0 mi WNW 12.7 mph - N/A   Clear
4:51 PM 73.0 °F 55.9 °F 55% 29.96 in 10.0 mi WNW 11.5 mph - N/A   Scattered Clouds
5:51 PM 72.0 °F 55.0 °F 55% 29.98 in 10.0 mi WNW 9.2 mph - N/A   Mostly Cloudy
6:51 PM 71.1 °F 55.9 °F 59% 29.99 in 10.0 mi Calm Calm - N/A   Overcast
7:51 PM 66.9 °F 55.9 °F 68% 30.01 in 10.0 mi Variable 3.5 mph - N/A   Partly Cloudy
8:51 PM 62.1 °F 57.0 °F 84% 30.03 in 10.0 mi Calm Calm - N/A   Mostly Cloudy
9:51 PM 60.1 °F 55.9 °F 86% 30.04 in 10.0 mi Calm Calm - N/A   Clear
10:51 PM 59.0 °F 55.9 °F 90% 30.05 in 10.0 mi Calm Calm - N/A   Clear
11:51 PM 57.9 °F 55.0 °F 90% 30.04 in 10.0 mi Calm Calm - N/A   Clear